Find Starlink 30426

NORAD ID: 57848 Int'l Des: 2023-141 Owner: SPXS Country: US Constellation: starlink operational
LEOCIRCULAR

現在のビュー

3D地球を読み込み中...

About Starlink 30426

Starlink 30426 (NORAD 57848) is a starlink constellation satellite (v2 mini) launched Sep 12, 2023 by SPXS of US. It operates in LEO, CIRCULAR orbit with a mass of 730.00 kg.

Starlink 30426について

説明を読み込み中...

次回通過

Passes for default location (London). Set your location on the main map for personalized predictions.

高度履歴

Loading altitude history...

軌道要素

1 57848U 23141J 26170.25116767 -.00000793 00000-0 -14670-4 0 9997
2 57848 53.1593 172.4126 0001309 80.1870 279.9278 15.30189957155878
Epoch: Jun 19, 2026 • Age: 14 hours

現在のステータス

高度 489.7 km
速度 7.62 km/s
衛星直下点 -41.29°S, 171.27°W
打ち上げ日 Sep 12, 2023
運用期間 2.7 years
タイプ internet

技術仕様

分類 Payload
質量 730.00 kg
乾燥質量 700.00 kg
総質量 730.00 kg
長さ 0.30 m
直径 4.10 m
スパン 29.00 m
形状 Box + pan
製造者 SPXS
バスタイプ Starlink V2M
フェーズステータス In Orbit
所有者/国 SPXS/US

Most Searched